Location: Writing-on-Stone Provincial Park
(49.0825°N, 111.6163°W)
Time: 16:30:58
(UTC-06:00)

Daily predictions for brighter satellites

Satellite Brightness Start Highest point End
(mag) Time Altitude Azimuth Time Altitude Azimuth Time Altitude Azimuth
Helios 1A 3.7 20:59:57 10° SE 21:03:52 38° ENE 21:07:49 10° N
USA 186 2.1 21:03:44 10° S 21:07:06 75° W 21:10:29 10° NNW
Cosmos 1741 Rocket 4.2 21:02:09 10° NNW 21:07:22 61° ENE 21:12:34 10° SE
Cosmos 1655 Rocket 4.0 21:01:47 10° S 21:08:02 73° E 21:14:23 10° NNE
Cosmos 1602 3.7 21:07:23 10° S 21:11:10 59° E 21:14:57 10° NNE
ERS-1 Rocket 3.9 21:07:19 10° SE 21:11:44 32° ENE 21:16:10 10° N
Cosmos 2360 4.2 21:07:08 10° SSW 21:12:51 86° ESE 21:18:35 10° NNE
Okean 2 Rocket 3.4 21:09:00 10° SSW 21:13:30 75° W 21:18:03 10° N
H-2A R/B 3.6 21:11:20 10° E 21:14:45 19° ENE 21:18:08 10° NNE
Abrixas rocket 2.2 21:12:28 10° WSW 21:15:44 74° S 21:19:02 10° E
Envisat 3.1 21:12:04 10° SSE 21:17:09 83° WSW 21:22:17 10° NNW
ATLAS 3B R/B 3.1 21:12:14 10° NW 21:18:56 51° NE 21:25:19 10° ESE
Meteor 1-11 Rocket 3.9 21:13:34 10° S 21:19:13 55° E 21:24:48 10° NNE
EXPRESS MD2 3.7 21:17:19 10° SSW 21:19:52 33° SE 21:24:06 10° ENE
SL-8 R/B 3.7 21:17:35 10° W 21:22:23 83° S 21:27:12 10° E
SJ-11-01 4.3 21:19:41 10° SSE 21:24:21 82° ENE 21:29:03 10° NNW
Cosmos 2278 Rocket 4.3 21:26:40 10° N 21:29:57 15° NNE 21:33:14 10° ENE
Cosmos 2263 Rocket 2.2 21:25:57 10° NNW 21:31:42 83° ENE 21:37:23 10° SSE
ARGOS 3.9 21:27:17 10° SE 21:32:03 36° ENE 21:36:55 10° N
Terra 3.9 21:30:12 10° E 21:32:11 13° NE 21:34:11 10° NNE
Cosmos 2322 Rocket 2.3 21:30:40 10° S 21:36:14 59° ESE 21:41:50 10° NE
Cosmos 1939 Rocket 3.2 21:34:06 10° S 21:38:03 66° W 21:41:59 10° NNW
Meteor 1-23 Rocket 4.2 21:33:21 10° N 21:38:56 69° ENE 21:44:29 10° SSE
Cosmos 1844 Rocket 3.9 21:34:19 10° NNW 21:39:17 30° NE 21:43:39 12° ESE
Spot 1 4.5 21:36:18 10° SSE 21:41:27 76° ENE 21:46:29 10° NNW
Cosmos 1633 4.4 21:39:24 10° SW 21:42:44 34° WNW 21:46:07 10° N
Lacrosse 5 rocket 3.6 21:40:55 10° W 21:43:04 15° SW 21:45:16 10° SSW
Cosmos 1536 2.8 21:40:18 10° S 21:44:20 67° E 21:48:23 10° NNE
SL-16 R/B 2.2 21:41:22 10° SSW 21:46:59 70° ESE 21:52:39 10° NNE
YAOGAN 6 2.8 21:43:57 10° S 21:47:28 69° WSW 21:51:00 10° NNW
Cosmos 1850 Rocket 4.5 21:44:54 10° NNW 21:50:11 62° WSW 21:55:24 10° S
Cosmos 1452 Rocket 4.2 21:46:37 10° SW 21:51:50 60° WNW 21:57:06 10° NNE
Helios 1B rocket 2.4 21:49:44 10° NNE 21:53:49 62° ESE 21:57:53 10° S
Cosmos 1420 Rocket 4.2 21:49:45 10° SSW 21:54:55 77° WNW 22:00:09 10° NNE
Cosmos 2322 4.5 21:51:40 10° SSE 21:56:30 30° ESE 22:01:24 10° NE
Tiangong 1 2.7 21:54:55 10° WSW 21:56:49 17° SSW 21:57:21 16° S
ATLAS 2AS CENTAUR R/B 3.2 21:49:25 10° S 21:56:49 50° ESE 22:04:35 10° NE
Cosmos 2219 Rocket 4.2 21:57:52 10° E 21:57:52 10° E 21:58:06 10° E
Okean 1 Rocket 3.0 21:54:01 10° S 21:58:19 66° E 22:02:41 10° NNE
Okean 1-7 Rocket 3.6 21:56:05 10° N 22:00:34 68° ENE 22:04:02 17° SSE
Cosmos 1500 4.3 21:59:14 22° ESE 22:00:35 27° E 22:03:54 10° NNE
Resurs 01 Rocket 4.1 21:58:54 10° SW 22:02:16 21° W 22:05:39 10° NW
Cosmos 1300 Rocket 3.6 21:58:44 10° SSW 22:03:02 77° W 22:07:23 10° N
NOSS 3-1 (A) 4.4 21:57:58 10° WSW 22:03:50 53° NW 22:10:34 10° NE
Cosmos 1607 4.3 21:59:07 10° NW 22:05:31 66° WSW 22:10:47 16° SSE
COSMOS 2428 3.9 22:04:15 19° ESE 22:05:33 21° E 22:09:40 10° NE
MetOp-B 4.1 22:01:15 15° SSE 22:05:45 76° ENE 22:11:07 10° NNW
Cosmos 1025 Rocket 2.9 22:02:19 10° N 22:06:37 81° E 22:09:50 17° SSE
NOSS 2-3 (E) 3.9 22:02:26 10° SSW 22:07:09 66° SE 22:12:49 10° NE
BREEZE-M DEB (TANK) 3.4 22:04:02 10° SW 22:07:33 58° SE 22:19:18 10° ENE
CENTAUR R/B 4.2 22:02:44 10° NW 22:09:16 33° NNE 22:16:27 10° E
Cosmos 220 Rocket 4.2 22:05:04 10° NNW 22:09:21 67° WSW 22:12:34 17° S
Cosmos 2360 Rocket 2.4 22:04:54 10° S 22:10:14 46° ESE 22:15:35 10° NE
SeaSat 1 2.9 22:06:02 10° NNE 22:10:56 66° NW 22:15:50 10° SW
Cosmos 2315 Rocket 4.0 22:04:43 10° N 22:10:59 86° E 22:16:44 13° S
Cosmos 1980 Rocket 3.9 22:06:32 10° WSW 22:11:39 35° NW 22:16:47 10° NNE
Cosmos 2266 Rocket 4.0 22:08:54 10° SSW 22:14:56 79° W 22:21:01 10° N
SPOT 1/Viking Rocket 3.9 22:12:34 22° SE 22:15:42 51° ENE 22:20:45 10° N
Meteor 1-5 Rocket 4.0 22:10:29 10° S 22:15:49 89° W 22:21:09 10° NNE
SPOT 5 2.9 22:14:37 23° SSE 22:17:37 64° ENE 22:22:14 10° N
Cosmos 2333 Rocket 4.1 22:20:17 13° E 22:20:17 13° E 22:21:51 10° ENE
CZ-4B DEB 4.0 22:20:10 15° SSW 22:22:08 33° W 22:24:49 10° NNW
Nadezhda 2 Rocket 4.4 22:16:28 10° S 22:22:36 75° E 22:28:51 10° NNE
Lacrosse 5 2.0 22:18:32 10° SSW 22:23:23 47° SE 22:28:15 10° ENE
ERBS 3.7 22:24:54 10° W 22:28:13 41° NNW 22:31:32 10° NE
USA 245 3.7 22:25:07 22° SSE 22:28:25 87° ENE 22:32:39 10° NNW
H-2A R/B 3.8 22:27:11 17° E 22:28:28 19° ENE 22:31:36 10° NNE
Okean 2 3.7 22:25:58 10° NNW 22:30:02 66° W 22:32:36 22° S
Meteor 1-29 3.5 22:28:02 10° N 22:31:26 57° WNW 22:34:45 10° SSW
USA 215 4.2 22:31:00 10° ENE 22:37:08 45° N 22:43:17 10° WNW
Atlas Centaur 2 4.4 22:35:44 10° SW 22:39:07 13° SSW 22:40:38 13° S
NOSS 2-3 (C) 4.2 22:36:00 10° SW 22:40:51 77° NW 22:46:45 10° NE
Cosmos 2237 Rocket 4.2 22:42:17 12° E 22:42:17 12° E 22:43:23 10° ENE
Cosmos 1745 Rocket 4.3 22:40:34 29° SE 22:43:13 46° E 22:49:04 10° NNE
Cosmos 1666 4.1 22:46:46 25° ENE 22:46:46 25° ENE 22:49:26 10° NNE
Cosmos 1066 Rocket 4.1 22:40:52 10° N 22:46:18 85° E 22:49:00 31° SSE
Cosmos 1626 Rocket 4.2 22:42:22 10° N 22:46:23 36° ENE 22:47:04 34° E
Cosmos 1892 Rocket 3.5 22:43:10 10° N 22:47:39 84° W 22:49:24 36° S
NOSS 3-2 (A) 4.0 22:41:53 10° NW 22:49:14 78° NE 22:53:41 29° SE
USA 238 DEB 3.9 22:43:05 10° NW 22:50:07 69° SW 22:53:57 29° SSE
USA 238 3.9 22:43:10 10° NW 22:50:14 70° SW 22:54:03 30° SSE
ERS-1 Rocket 4.1 22:46:24 14° SSW 22:50:25 40° W 22:55:10 10° NNW
Abrixas rocket 2.2 22:49:08 10° W 22:52:12 65° SW 22:52:12 65° SW
H-2A R/B 2.0 22:51:08 30° S 22:53:39 75° WSW 22:58:39 10° NNW
Landsat 7 3.8 22:52:08 41° SSE 22:53:47 75° ENE 22:58:33 10° N
Meteor 1-21 4.5 22:50:34 10° N 22:56:04 53° ENE 22:57:56 37° SE
Cosmos 1743 3.1 22:58:08 45° E 22:58:08 45° E 23:01:31 10° NNE
Cosmos 1975 2.7 22:59:01 50° S 23:00:02 89° SE 23:04:04 10° N
GP-B 3.5 22:59:07 10° NNE 23:03:25 45° E 23:03:42 44° E
SL-08 RB Rocket 4.5 23:01:44 26° SSW 23:03:57 47° W 23:08:22 10° NNW
Cosmos 405 3.1 23:03:31 58° SW 23:04:07 75° WNW 23:07:43 10° N
Cosmos 724 4.2 22:58:32 10° NW 23:04:30 79° NE 23:06:38 41° SE
SL-8 R/B 4.0 23:00:09 10° W 23:04:45 47° SSW 23:05:21 44° S
Cosmos 1544 Rocket 3.5 23:05:25 45° S 23:06:45 88° E 23:11:15 10° N
Terra 1.8 23:07:58 51° SE 23:09:07 75° ENE 23:13:54 10° N
ATLAS 3B R/B 3.2 23:03:13 10° NW 23:09:37 46° WSW 23:12:35 29° S
ARGOS 4.3 23:08:49 18° SSW 23:12:16 38° W 23:17:17 10° NNW
Meteor 1-12 Rocket 4.2 23:10:24 30° S 23:13:20 89° W 23:19:02 10° NNE
Cosmos 2263 Rocket 4.4 23:11:12 10° WNW 23:14:54 18° W 23:18:34 10° SW
Cosmos 1486 Rocket 4.5 23:10:09 10° NNW 23:15:17 54° WSW 23:17:08 36° SSW
Cosmos 2278 Rocket 2.5 23:09:47 10° NNW 23:15:23 55° NE 23:17:05 40° ESE
Cosmos 1241 Rocket 4.5 23:13:46 25° SSW 23:17:35 62° ESE 23:23:58 10° NE
Cosmos 1302 Rocket 3.9 23:15:40 29° SSW 23:18:25 90° WNW 23:23:44 10° NNE
Cosmos 1455 Rocket 3.1 23:18:20 50° SSW 23:19:26 80° W 23:23:56 10° N
Cosmos 2322 Rocket 4.1 23:15:39 10° WSW 23:20:39 31° NW 23:25:41 10° NNE
ATLAS CENTAUR R/B 3.4 23:18:29 10° NNW 23:20:59 17° NNE 23:22:08 15° NE
Cosmos 2237 4.2 23:16:44 16° SSW 23:21:22 85° WNW 23:27:07 10° NNE
Cosmos 1844 Rocket 2.9 23:17:58 10° NW 23:23:35 61° WSW 23:25:19 42° S
NOSS 3-2 (C) 3.9 23:19:40 10° NW 23:27:05 88° SW 23:30:21 40° SE
Nadezhda 1 Rocket 4.1 23:24:03 10° NNW 23:30:20 74° W 23:32:52 39° S
SL-16 R/B 4.3 23:26:53 10° WSW 23:31:38 27° NW 23:36:24 10° NNE
Cosmos 968 Rocket 3.9 23:26:45 10° NNW 23:31:43 47° ENE 23:32:31 44° E
IGS 5A 3.5 23:31:35 65° SW 23:31:51 68° WSW 23:36:02 10° NNW
Aureole 2 Rocket 4.3 23:35:04 22° NNE 23:35:04 22° NNE 23:36:19 10° NNE
Spot 4 3.8 23:34:41 63° ESE 23:35:06 67° ENE 23:39:52 10° N
DMSP B5D2-2 4.2 23:31:27 10° N 23:36:43 74° WNW 23:38:42 39° SSW
EXPRESS MD2 4.1 23:33:35 10° W 23:37:30 82° N 23:45:55 10° E
Meteor 2-9 Rocket 4.3 23:37:48 55° SE 23:38:34 60° E 23:44:08 10° NNE
Cosmos 2219 Rocket 2.1 23:39:32 60° SSE 23:40:09 64° ESE 23:45:46 10° NNE
Cosmos 2322 4.4 23:34:56 10° SW 23:40:27 52° NW 23:46:01 10° NNE
CZ-4C R/B 4.4 23:42:20 34° NNE 23:42:20 34° NNE 23:44:44 10° N
CZ-2C R/B 4.0 23:38:20 10° NE 23:42:03 24° E 23:42:03 24° E
Cosmos 2181 Rocket 4.1 23:37:05 10° N 23:43:33 67° ENE 23:45:02 52° SE
COSMOS 2455 3.7 23:37:58 10° NNW 23:43:38 40° NE 23:45:53 30° E
ALOS 2 4.2 23:46:53 24° ENE 23:46:53 24° ENE 23:50:25 10° N
Cosmos 1437 Rocket 3.3 23:47:38 55° W 23:47:43 55° WNW 23:51:38 10° N
ATLAS 2AS CENTAUR R/B 3.7 23:40:07 10° WSW 23:47:54 57° NW 23:55:58 10° NE
SL-16 R/B 4.0 23:49:33 17° ENE 23:49:33 17° ENE 23:51:51 10° NE
COSMOS 2428 2.8 23:46:11 29° SW 23:49:12 74° WNW 23:54:58 10° NNE
CARTOSAT-1 4.3 23:50:43 41° WSW 23:51:03 42° W 23:55:11 10° NNW
Cosmos 1709 Rocket 3.9 23:49:58 57° SSE 23:51:10 72° E 23:57:24 10° NNE
Cosmos 1354 Rocket 4.5 23:46:11 10° NNW 23:51:21 51° WSW 23:52:13 46° SW
Cosmos 2360 Rocket 3.6 23:49:11 10° WSW 23:54:22 36° NW 23:59:34 10° NNE
